Green Cape Observation History
Time Wind Speed Temp Pressure Rel. Hum Rain
04/04:30am - 21-25 kts 11.2°c 1030.8 hPa 77% 0.0mm
04/04:00am - 22-26 kts 10.9°c 1030.7 hPa 78% 0.0mm
04/03:30am - 21-26 kts 10.7°c 1030.9 hPa 80% 0.0mm
04/03:00am - 22-26 kts 10.7°c 1030.7 hPa 82% 0.0mm
04/02:30am - 21-25 kts 10.9°c 1030.8 hPa 84% 0.0mm
04/02:00am - 23-27 kts 10.8°c 1030.7 hPa 84% 0.0mm
04/01:30am - 21-25 kts 10.8°c 1030.8 hPa 84% 0.0mm
04/01:00am - 19-22 kts 10.7°c 1030.7 hPa 83% 0.0mm
04/12:30am - 19-22 kts 10.9°c 1030.8 hPa 83% 0.0mm
04/12:00am - 19-22 kts 11.3°c 1030.7 hPa 82% 0.0mm
Time Wind Speed Temp Pressure Rel. Hum Rain
03/11:30pm - 19-22 kts 11.3°c 1030.8 hPa 82% 0.0mm
03/11:00pm - 18-21 kts 11.4°c 1030.7 hPa 81% 0.0mm
03/10:30pm - 17-21 kts 11.8°c 1030.5 hPa 81% 0.0mm
03/10:00pm - 17-20 kts 11.4°c 1030.2 hPa 82% 0.0mm
03/09:30pm - 17-19 kts 11.7°c 1030.1 hPa 80% 0.0mm
03/09:00pm - 15-19 kts 12.0°c 1030.0 hPa 78% 0.0mm
03/08:30pm - 15-17 kts 12.4°c 1029.6 hPa 74% 0.0mm
03/08:00pm - 21-26 kts 13.2°c 1029.2 hPa 71% 0.0mm
03/07:30pm - 22-27 kts 13.0°c 1028.7 hPa 69% 0.0mm
03/07:00pm - 23-29 kts 13.2°c 1028.3 hPa 67% 0.0mm
03/06:30pm - 25-29 kts 13.1°c 1027.9 hPa 66% 0.0mm
03/06:00pm - 27-33 kts 13.1°c 1027.2 hPa 69% 0.0mm
03/05:30pm - 25-29 kts 13.2°c 1026.8 hPa 68% 0.0mm
03/05:00pm - 27-31 kts 13.1°c 1026.4 hPa 65% 0.0mm
03/04:30pm - 29-34 kts 13.3°c 1025.8 hPa 68% 0.0mm
03/04:00pm - 30-39 kts 13.4°c 1025.4 hPa 63% 0.0mm
03/03:30pm - 28-33 kts 13.6°c 1025.0 hPa 67% 0.0mm
03/03:00pm - 29-35 kts 13.7°c 1024.5 hPa 66% 0.0mm
03/02:30pm - 30-36 kts 13.8°c 1024.1 hPa 67% 0.0mm
03/02:00pm - 31-37 kts 13.8°c 1023.4 hPa 70% 0.0mm
03/01:30pm - 24-31 kts 13.3°c 1023.5 hPa 80% 0.0mm
03/01:00pm - 30-36 kts 13.7°c 1022.8 hPa 78% 0.0mm
03/12:30pm - 28-34 kts 13.6°c 1022.6 hPa 78% 0.0mm
03/12:00pm - 26-29 kts 13.8°c 1022.7 hPa 71% 0.0mm
03/11:30am - 24-29 kts 13.6°c 1022.5 hPa 73% 0.0mm
03/11:00am - 19-27 kts 13.5°c 1022.5 hPa 78% 0.0mm
03/10:30am - 21-24 kts 12.6°c 1022.6 hPa 81% 0.0mm
03/10:00am - 23-30 kts 12.6°c 1022.3 hPa 78% 0.0mm
03/09:30am - 23-34 kts 12.8°c 1021.7 hPa 78% 0.0mm
03/09:00am - 22-29 kts 12.4°c 1021.1 hPa 82% 0.0mm
03/08:30am - 24-29 kts 12.3°c 1020.9 hPa 81% 0.0mm
03/08:00am - 22-29 kts 12.0°c 1020.2 hPa 83% 0.0mm
03/07:30am - 26-33 kts 12.0°c 1019.0 hPa 82% 0.0mm
03/07:00am - 26-35 kts 11.9°c 1018.6 hPa 81% 0.0mm
03/06:30am - 26-34 kts 11.8°c 1017.9 hPa 82% 0.0mm
03/06:00am - 26-32 kts 11.6°c 1017.4 hPa 85% 0.0mm
03/05:30am - 22-28 kts 11.4°c 1016.9 hPa 85% 0.0mm
03/05:00am - 22-27 kts 11.7°c 1016.7 hPa 82% 0.0mm
03/04:30am - 25-31 kts 12.7°c 1016.0 hPa 75% 0.0mm
03/04:00am - 19-25 kts 12.5°c 1016.0 hPa 79% 0.0mm
03/03:30am - 24-29 kts 12.2°c 1015.7 hPa 83% 0.0mm
03/03:00am - 29-41 kts 12.6°c 1015.6 hPa 79% 0.0mm
03/02:30am - 28-35 kts 14.4°c 1015.1 hPa 67% 0.0mm
03/02:00am - 11-17 kts 14.5°c 1014.6 hPa 65% 0.0mm
03/01:30am - 14-20 kts 14.2°c 1014.3 hPa 67% 0.0mm
03/01:00am - 15-19 kts 13.5°c 1014.1 hPa 70% 0.0mm
03/12:30am - 17-21 kts 13.9°c 1014.0 hPa 72% 0.0mm
03/12:00am CALM 0 kts 11.9°c 1014.3 hPa 76% 0.0mm
Time Wind Speed Temp Pressure Rel. Hum Rain
02/11:30pm CALM 0 kts 11.8°c 1014.7 hPa 77% 0.0mm
02/11:00pm CALM 0 kts 12.0°c 1014.6 hPa 78% 0.0mm
02/10:30pm CALM 0 kts 12.3°c 1014.8 hPa 77% 0.0mm
02/10:00pm CALM 0 kts 12.8°c 1015.1 hPa 78% 0.0mm
02/09:30pm - 9-11 kts 13.0°c 1015.1 hPa 78% 0.0mm
02/09:00pm - 6-11 kts 13.3°c 1014.9 hPa 77% 0.0mm
02/08:30pm - 12-21 kts 13.6°c 1015.1 hPa 76% 0.0mm
02/08:00pm - 13-16 kts 13.7°c 1015.2 hPa 75% 0.0mm
02/07:30pm - 9-21 kts 14.1°c 1015.1 hPa 70% 0.0mm
02/07:00pm CALM 0 kts 14.3°c 1014.8 hPa 67% 0.0mm
02/06:30pm CALM 0 kts 14.3°c 1014.5 hPa 67% 0.0mm
02/06:00pm - 10-14 kts 14.7°c 1014.3 hPa 66% 0.0mm
02/05:30pm - 16-21 kts 14.9°c 1014.0 hPa 66% 0.0mm
02/05:00pm - 13-18 kts 14.7°c 1014.1 hPa 67% 0.0mm
02/04:30pm - 14-21 kts 14.8°c 1014.1 hPa 66% 0.0mm
02/04:00pm - 17-21 kts 15.0°c 1014.0 hPa 64% 0.0mm
02/03:30pm - 17-20 kts 15.1°c 1013.9 hPa 65% 0.0mm
02/03:00pm - 20-24 kts 15.2°c 1013.6 hPa 65% 0.0mm
02/02:30pm - 21-25 kts 14.9°c 1013.5 hPa 65% 0.0mm
02/02:00pm - 15-20 kts 14.9°c 1013.5 hPa 64% 0.0mm
02/01:30pm - 19-25 kts 14.6°c 1013.6 hPa 65% 0.0mm
02/01:00pm - 24-28 kts 14.3°c 1013.5 hPa 66% 0.0mm
02/12:30pm - 23-28 kts 14.3°c 1013.6 hPa 67% 0.0mm
02/12:00pm - 24-33 kts 13.9°c 1014.0 hPa 67% 0.0mm
02/11:30am - 24-31 kts 13.5°c 1014.2 hPa 68% 0.0mm
02/11:00am - 22-26 kts 13.3°c 1014.5 hPa 68% 0.0mm
02/10:30am - 18-22 kts 13.1°c 1014.8 hPa 68% 0.0mm
02/10:00am - 22-27 kts 12.6°c 1014.6 hPa 68% 0.0mm
02/09:30am - 21-28 kts 12.3°c 1014.4 hPa 71% 0.0mm
02/09:00am - 21-26 kts 11.6°c 1014.6 hPa 71% 0.0mm
02/08:30am - 23-35 kts 11.3°c 1014.4 hPa 74% 0.0mm
02/08:00am - 24-30 kts 11.0°c 1014.0 hPa 76% 0.0mm
02/07:30am - 24-33 kts 10.8°c 1013.9 hPa 77% 0.0mm
02/07:00am - 25-32 kts 10.9°c 1013.7 hPa 79% 0.0mm
02/06:30am - 23-29 kts 10.9°c 1013.5 hPa 80% 0.0mm
02/06:00am - 25-32 kts 10.8°c 1012.8 hPa 83% 0.0mm
02/05:30am - 5-37 kts 10.9°c 1012.0 hPa 85% 0.0mm
02/05:00am CALM 0 kts 11.2°c 1011.8 hPa 87% 0.0mm
02/04:30am CALM 0 kts 11.5°c 1011.4 hPa 86% 0.0mm
02/04:00am CALM 0 kts 11.6°c 1011.4 hPa 82% 0.0mm
02/03:30am CALM 0 kts 11.6°c 1011.1 hPa 78% 0.0mm
02/03:00am CALM 0 kts 11.9°c 1010.9 hPa 75% 0.0mm
02/02:30am CALM 0 kts 11.9°c 1010.8 hPa 73% 0.0mm
02/02:00am CALM 0 kts 11.8°c 1010.9 hPa 72% 0.0mm
02/01:30am CALM 0 kts 12.1°c 1010.6 hPa 71% 0.0mm
02/01:00am CALM 0 kts 12.2°c 1010.4 hPa 73% 0.0mm
02/12:30am CALM 0 kts 12.3°c 1010.5 hPa 74% 0.0mm
02/12:00am CALM 0 kts 12.4°c 1010.3 hPa 75% 0.0mm